Point Hope, AK

8:38 PM AKDT on March 22, 2017 (GMT -0800)
Point Hope

Weather History for PAPO - January, 2014

Change the Weather History Date:

Thursday, January 2, 2014

  Actual Average Record
Temperature  
Mean Temperature 2 °F -  
Max Temperature 19 °F 2 °F 33 °F (2005)
Min Temperature -16 °F -3 °F -20 °F (2000)
Degree Days  
Heating Degree Days 64    
Moisture  
Dew Point -2 °F    
Average Humidity 76    
Maximum Humidity 93    
Minimum Humidity 45    
Precipitation  
Precipitation 0.00 in - - ()
Sea Level Pressure  
Sea Level Pressure 29.72 in    
Wind  
Wind Speed 8 mph (ESE)    
Max Wind Speed 18 mph    
Max Gust Speed -    
Visibility 10 miles    
Events      
Averages and records for this station are not official NWS values.
T = Trace of Precipitation, MM = Missing Value Source: NWS Daily Summary

Daily Weather History Graph

Daily Weather History Graph

Search for Another Location

Airport or City:

Trip Planner

Search our weather history database for the weather conditions in past years. The results will help you decide how hot, cold, wet, or windy it might be!

Date:

Astronomy

Jan. 02, 2014 Rise Set
Actual Time 1:38 PM AKST 2:43 PM AKST
Civil Twilight 11:27 AM AKST 4:55 PM AKST
Nautical Twilight 9:58 AM AKST 6:24 PM AKST
Astronomical Twilight 8:46 AM AKST 7:36 PM AKST
Moon 12:20 PM AKST (1/2) 7:15 PM AKST (1/2)
Length of Visible Light 5h 28m
Length of Day
1h 04m
Waxing Crescent, 3% of the Moon is Illuminated
Jan 2
Waxing Crescent
Jan 7
First Quarter
Jan 15
Full
Jan 23
Last Quarter
Jan 30
New

Hourly Weather History & Observations

Time (AKST) Temp. Windchill Dew Point Humidity Pressure Visibility Wind Dir Wind Speed Gust Speed Precip Events Conditions
12:36 AM -14.8 °F -33.5 °F -29.2 °F 48% 29.55 in 10.0 mi ENE 9.2 mph - N/A   Clear
12:56 AM -11.2 °F -24.8 °F -27.4 °F 45% 29.56 in 10.0 mi East 5.8 mph - N/A   Clear
1:16 AM -9.4 °F -24.3 °F -20.2 °F 59% 29.57 in 10.0 mi SE 6.9 mph - N/A   Clear
1:56 AM -0.4 °F -12.0 °F -7.6 °F 72% 29.58 in 10.0 mi South 5.8 mph - N/A   Clear
2:16 AM -0.4 °F -8.3 °F -5.8 °F 78% 29.59 in 10.0 mi South 3.5 mph - N/A   Clear
2:36 AM -9.4 °F -18.6 °F -18.4 °F 65% 29.59 in 10.0 mi SE 3.5 mph - N/A   Clear
2:56 AM -14.8 °F -33.5 °F -27.4 °F 53% 29.60 in 10.0 mi ENE 9.2 mph - N/A   Clear
3:36 AM -16.6 °F -36.8 °F -25.6 °F 64% 29.60 in 10.0 mi ENE 10.4 mph - N/A   Clear
3:56 AM -16.6 °F -34.4 °F -27.4 °F 58% 29.61 in 10.0 mi East 8.1 mph - N/A   Clear
4:16 AM -14.8 °F -30.8 °F -23.8 °F 64% 29.61 in 10.0 mi East 6.9 mph - N/A   Clear
4:36 AM -13.0 °F -30.0 °F -22.0 °F 64% 29.62 in 10.0 mi East 8.1 mph - N/A   Clear
4:56 AM -11.2 °F -26.4 °F -20.2 °F 64% 29.62 in 10.0 mi East 6.9 mph - N/A   Clear
5:16 AM -9.4 °F -18.6 °F -18.4 °F 65% 29.62 in 10.0 mi ESE 3.5 mph - N/A   Clear
5:36 AM -5.8 °F - -11.2 °F 77% 29.63 in 10.0 mi Calm Calm - N/A   Clear
5:56 AM -5.8 °F -14.5 °F -13.0 °F 71% 29.63 in 10.0 mi SE 3.5 mph - N/A   Clear
6:16 AM -7.6 °F -20.6 °F -16.6 °F 65% 29.64 in 10.0 mi SE 5.8 mph - N/A   Clear
6:36 AM -13.0 °F -27.0 °F -20.2 °F 70% 29.64 in 10.0 mi ESE 5.8 mph - N/A   Clear
6:56 AM -16.6 °F -31.3 °F -29.2 °F 53% 29.65 in 10.0 mi East 5.8 mph - N/A   Clear
7:16 AM -11.2 °F -23.0 °F -20.2 °F 64% 29.66 in 10.0 mi East 4.6 mph - N/A   Clear
7:36 AM -16.6 °F -29.3 °F -25.6 °F 64% 29.66 in 10.0 mi East 4.6 mph - N/A   Clear
7:56 AM -11.2 °F -23.0 °F -16.6 °F 77% 29.67 in 10.0 mi SE 4.6 mph - N/A   Clear
8:16 AM -7.6 °F -20.6 °F -16.6 °F 65% 29.68 in 10.0 mi ESE 5.8 mph - N/A   Clear
8:36 AM -4.0 °F -16.3 °F -9.4 °F 78% 29.68 in 10.0 mi SSE 5.8 mph - N/A   Clear
8:56 AM -5.8 °F -18.4 °F -16.6 °F 60% 29.68 in 10.0 mi ESE 5.8 mph - N/A   Clear
9:16 AM -5.8 °F -19.9 °F -13.0 °F 71% 29.68 in 10.0 mi East 6.9 mph - N/A   Clear
9:36 AM -2.2 °F -15.6 °F -9.4 °F 71% 29.69 in 10.0 mi ESE 6.9 mph - N/A   Clear
9:56 AM -0.4 °F -13.4 °F -7.6 °F 72% 29.69 in 10.0 mi ESE 6.9 mph - N/A   Clear
10:16 AM -0.4 °F -12.0 °F -7.6 °F 72% 29.71 in 10.0 mi SE 5.8 mph - N/A   Clear
10:36 AM -2.2 °F - -11.2 °F 66% 29.72 in 10.0 mi Calm Calm - N/A   Partly Cloudy
10:56 AM -0.4 °F - -5.8 °F 78% 29.72 in 10.0 mi Calm Calm - N/A   Mostly Cloudy
11:16 AM -2.2 °F -10.4 °F -9.4 °F 71% 29.73 in 10.0 mi East 3.5 mph - N/A   Overcast
11:36 AM -0.4 °F - -4.0 °F 85% 29.73 in 10.0 mi Calm Calm - N/A   Overcast
11:56 AM 1.4 °F - -2.2 °F 85% 29.74 in 10.0 mi Calm Calm - N/A   Overcast
12:16 PM 3.2 °F - -4.0 °F 72% 29.74 in 10.0 mi Calm Calm - N/A   Overcast
12:36 PM 6.8 °F -0.1 °F 3.2 °F 85% 29.74 in 10.0 mi SE 3.5 mph - N/A   Overcast
12:56 PM 5.0 °F -5.6 °F -2.2 °F 72% 29.75 in 10.0 mi SE 5.8 mph - N/A   Overcast
1:16 PM 6.8 °F -3.5 °F 1.4 °F 79% 29.76 in 10.0 mi ESE 5.8 mph - N/A   Overcast
1:36 PM 8.6 °F -2.6 °F 5.0 °F 85% 29.76 in 9.0 mi ESE 6.9 mph - N/A   Overcast
1:56 PM 6.8 °F -7.8 °F -0.4 °F 72% 29.77 in 10.0 mi ESE 10.4 mph - N/A   Overcast
2:16 PM 14.0 °F -0.2 °F 6.8 °F 73% 29.77 in 10.0 mi SE 12.7 mph - N/A   Overcast
2:36 PM 15.8 °F 1.4 °F 12.2 °F 86% 29.77 in 10.0 mi SE 13.8 mph - N/A   Overcast
2:56 PM 15.8 °F 2.1 °F 14.0 °F 93% 29.77 in 10.0 mi ESE 12.7 mph - N/A   Overcast
3:16 PM 17.6 °F 4.3 °F 14.0 °F 86% 29.78 in 10.0 mi ESE 12.7 mph - N/A   Overcast
3:36 PM 15.8 °F 4.2 °F 10.4 °F 79% 29.78 in 10.0 mi East 9.2 mph - N/A   Overcast
3:56 PM 17.6 °F 3.7 °F 14.0 °F 86% 29.78 in 10.0 mi SE 13.8 mph - N/A   Overcast
4:16 PM 17.6 °F 3.7 °F 14.0 °F 86% 29.78 in 10.0 mi SE 13.8 mph - N/A   Overcast
4:36 PM 17.6 °F 4.3 °F 14.0 °F 86% 29.78 in 10.0 mi SE 12.7 mph - N/A   Overcast
4:56 PM 17.6 °F 6.4 °F 14.0 °F 86% 29.79 in 10.0 mi East 9.2 mph - N/A   Overcast
5:16 PM 17.6 °F 5.0 °F 12.2 °F 79% 29.79 in 10.0 mi East 11.5 mph - N/A   Overcast
5:36 PM 15.8 °F 4.2 °F 12.2 °F 86% 29.79 in 10.0 mi East 9.2 mph - N/A   Overcast
5:56 PM 17.6 °F 2.7 °F 15.8 °F 93% 29.79 in 10.0 mi ESE 16.1 mph - N/A   Overcast
6:16 PM 17.6 °F 2.2 °F 14.0 °F 86% 29.79 in 10.0 mi ESE 17.3 mph - N/A   Overcast
6:36 PM 17.6 °F 2.2 °F 14.0 °F 86% 29.80 in 9.0 mi ESE 17.3 mph - N/A   Overcast
6:56 PM 17.6 °F 3.2 °F 14.0 °F 86% 29.81 in 8.0 mi ESE 15.0 mph - N/A   Overcast
7:16 PM 17.6 °F 3.2 °F 14.0 °F 86% 29.81 in 8.0 mi East 15.0 mph - N/A   Overcast
7:36 PM 17.6 °F 3.7 °F 14.0 °F 86% 29.81 in 10.0 mi East 13.8 mph - N/A   Overcast
7:56 PM 17.6 °F 4.3 °F 14.0 °F 86% 29.81 in 10.0 mi ESE 12.7 mph - N/A   Overcast
8:16 PM 17.6 °F 3.7 °F 14.0 °F 86% 29.81 in 7.0 mi ESE 13.8 mph - N/A   Overcast
8:36 PM 17.6 °F 3.7 °F 14.0 °F 86% 29.82 in 10.0 mi ESE 13.8 mph - N/A   Overcast
8:56 PM 17.6 °F 2.2 °F 15.8 °F 93% 29.82 in 10.0 mi SE 17.3 mph - N/A   Overcast
9:36 PM 17.6 °F 1.7 °F 14.0 °F 86% 29.83 in 10.0 mi SE 18.4 mph - N/A   Overcast
9:56 PM 17.6 °F 1.7 °F 14.0 °F 86% 29.83 in 10.0 mi ESE 18.4 mph - N/A   Overcast
10:36 PM 17.6 °F 2.7 °F 15.8 °F 93% 29.83 in 10.0 mi SE 16.1 mph - N/A   Overcast
10:56 PM 17.6 °F 3.2 °F 14.0 °F 86% 29.84 in 10.0 mi ESE 15.0 mph - N/A   Overcast
11:16 PM 19.4 °F 5.5 °F 14.0 °F 80% 29.84 in 10.0 mi ESE 15.0 mph - N/A   Overcast
11:36 PM 19.4 °F 6.0 °F 14.0 °F 80% 29.85 in 10.0 mi ESE 13.8 mph - N/A   Overcast
11:56 PM 19.4 °F 5.0 °F 14.0 °F 80% 29.85 in 8.0 mi ESE 16.1 mph - N/A   Overcast